Regional Weather Roundup
Issued by NWS

Home | Current Version | Previous Version | Text Only | Print | Product List | Glossary Off
Versions: 1 2 3 4 5 6 7 8 9 10 11 12 13 14 15 16 17 18 19 20 21 22 23 24 25 26 27 28

000
ASUS45 KTFX 230610
RWRMT
MONTANA REGIONAL WEATHER ROUNDUP
NATIONAL WEATHER SERVICE GREAT FALLS MT
1200 AM MDT SAT SEP 23 2017

NOTE: "FAIR" INDICATES FEW OR NO CLOUDS BELOW 12000 FEET WITH NO
SIGNIFICANT WEATHER AND/OR OBSTRUCTIONS TO VISIBILITY.

MTZ001>007-043-230700-
WEST OF THE DIVIDE

CITY           SKY/WX    TMP DP  RH WIND       PRES   REMARKS
MISSOULA       MOCLDY    34  32  92 NW5       30.08R
BUTTE          CLOUDY    33  31  92 NW7       30.04S WCI  27
MULLAN PASS    CLEAR     31  29  92 SE7       30.00F WCI  24
ANACONDA         N/A     34  30  86 CALM      30.05S
DEER LODGE       N/A     36  30  80 NW8       30.08S WCI  29
EUREKA           N/A     45  34  65 CALM      30.02S
HAMILTON         N/A     41  32  70 CALM      30.07S
LIBBY            N/A     45  37  76 CALM      30.01R
$$

MTZ008-052>055-230700-
SOUTHWEST MONTANA

CITY           SKY/WX    TMP DP  RH WIND       PRES   REMARKS
BOZEMAN        LGT RAIN  37  35  92 SW3       30.05R FOG
DILLON         CLOUDY    35  31  85 NE6       30.02S WCI  30
W YELLOWSTONE  CLOUDY    36  34  93 MISG      30.00S
ENNIS          FLURRIES  34  34 100 N6        30.07S WCI  29
THREE FORKS      N/A     38  35  89 CALM      30.04S
$$

MTZ009-010-012-014-046-048-049-054-230700-
EAST SLOPES AND CENTRAL MONTANA

CITY           SKY/WX    TMP DP  RH WIND       PRES   REMARKS
CUT BANK       CLOUDY    35  33  92 CALM      30.07F
GREAT FALLS    CLOUDY    36  34  92 NW7       30.08F WCI  30
MALMSTROM AFB  CLOUDY    37  37  97 NW5       30.09S
HELENA         CLOUDY    38  35  89 W5        30.06F
BOWMANS CRNR   CLOUDY    32  32 100 MISG      30.05F
CHOTEAU          N/A     34  34 100 SW3       30.10S
FAIRFIELD      CLOUDY    34  32  94 W5        30.08F
POWER          MOCLDY    35  34  97 NW6       30.07F WCI  30
RAYNESFORD     CLOUDY    37  37  99 CALM      30.07F
ULM            CLOUDY    35  35 100 W5        30.09S
$$

MTZ011-013-016-021-045-047-050-051-230700-
NORTH CENTRAL MONTANA

CITY           SKY/WX    TMP DP  RH WIND       PRES   REMARKS
HAVRE          CLOUDY    44  37  76 SW3       30.09S
LEWISTOWN      LGT RAIN  37  36  96 SE5       30.07S
N BAR RANCH    CLOUDY    34  34 100 CALM      30.09F
CHINOOK          N/A     45  37  76 CALM      30.09S
DENTON           N/A     39  38  94 CALM      30.05F
GEYSER         MOCLDY    37  37  99 NE3       30.07S FOG
JUDITH GAP     LGT RAIN  35  34  96 S7        30.06F WCI  29
WINIFRED       DRIZZLE   39  37  93 CALM      30.07F
$$

MTZ017>020-022>027-061-062-230700-
NORTHEAST MONTANA

CITY           SKY/WX    TMP DP  RH WIND       PRES   REMARKS
GLASGOW        CLOUDY    45  41  86 CALM      30.07F
JORDAN           N/A     44  39  82 CALM      30.08F
SIDNEY         CLOUDY    43  39  86 NW9       30.08R
WOLF POINT     CLOUDY    40  38  93 NW5       30.09R
MALTA          CLOUDY    45  41  87 CALM      30.09S
$$

MTZ028>42-056>058-230700-
SOUTHCENTRAL AND SOUTHEAST MONTANA

CITY           SKY/WX    TMP DP  RH WIND       PRES   REMARKS
BAKER          CLOUDY    43  36  76 N7        30.06S
BILLINGS       DRIZZLE   40  39  97 NE8       30.05F
LIVINGSTON     FLURRIES  35  34  96 E9        30.04S WCI  28
MILES CITY     CLOUDY    44  37  76 N6        30.08S
BIG TIMBER     CLOUDY    34  34 100 NE8       30.07F WCI  27
HARLOWTON      LGT RAIN  36  35  97 MISG      30.07F
LAUREL           N/A     39  39 100 NE7       30.07R
$$

REGIONAL REPORTS...DAKOTAS

CITY           SKY/WX    TMP DP  RH WIND       PRES   REMARKS
WILLISTON      CLOUDY    45  42  89 NW10      30.07R
MINOT          CLOUDY    48  45  89 NW12      29.99F
BEACH          CLOUDY    43  43 100 N8        30.10R
CROSBY         CLOUDY    43  43 100 NW10      30.04F
TIOGA          CLOUDY    45  45 100 N10       30.05R
WATFORD CITY   CLOUDY    45  43  93 NW3       30.07R
BISMARCK       CLOUDY    50  44  80 NW6       30.05R
GRAND FORKS    CLOUDY    54  51  90 N14G26    29.82R
FARGO          CLOUDY    57  53  86 NW14      29.83R
BUFFALO SD       N/A     44  41  89 NW8       29.98R
$$

REGIONAL REPORTS...WYOMING/IDAHO/WASHINGTON

CITY           SKY/WX    TMP DP  RH WIND       PRES   REMARKS
GILLETTE       CLOUDY    42  35  76 N13       30.02R
SHERIDAN       CLOUDY    41  40  96 NW3       30.05F
BUFFALO WY     CLOUDY    38  35  89 N3        30.05F
CODY           LGT RAIN  35  35 100 CALM      30.05S
IDAHO FALLS    CLEAR     37  33  85 SW5       30.01R
SALMON         CLOUDY    44  34  67 CALM      30.01S
BOISE          MOCLDY    42  38  85 CALM      30.01R
SPOKANE        MOCLDY    48  39  71 S8        30.01S
$$

REGIONAL REPORTS...ALBERTA

CITY           SKY/WX    TMP DP  RH WIND       PRES   REMARKS
EDMONTON       CLOUDY    41  37  87 S2        30.05F
CALGARY        CLOUDY    39  34  81 SE6       30.03S
LETHBRIDGE     CLOUDY    39  36  87 SE6       30.06S
MEDICINE HAT   CLOUDY    39  36  87 S5        30.08S
$$

REGIONAL REPORTS...SASKATCHEWAN

CITY           SKY/WX    TMP DP  RH WIND       PRES   REMARKS
SWIFT CURRENT    N/A     39  32  75 S6        30.08R
REGINA         MOCLDY    37  37 100 NW2       30.07F
SASKATOON      MOCLDY    43  39  87 NW5       30.08F
$$




USA.gov is the U.S. government's official web portal to all federal, state and local government web resources and services.